Stündliche Wetter Bolshie Gory

Heute, 11 April, Sonntag

Zeit Temperatur Niederschläge Wind Luftdruck Luftfeuchtigkeit
00:00 -2°C° 0 mm 5 m/S 754 mmHg 83%
01:00 -2°C° 0 mm 5 m/S 755 mmHg 85%
02:00 -3°C° 0 mm 4 m/S 756 mmHg 88%
03:00 -4°C° 0 mm 5 m/S 756 mmHg 88%
04:00 -4°C° 0 mm 5 m/S 756 mmHg 88%
05:00 -4°C° 0 mm 5 m/S 757 mmHg 88%
06:00 -2°C° 0 mm 5 m/S 757 mmHg 86%
07:00 -1°C° 0 mm 5 m/S 758 mmHg 83%
08:00 -1°C° 0 mm 6 m/S 758 mmHg 81%
09:00 +1°C° 0 mm 6 m/S 759 mmHg 78%
10:00 +1°C° 0 mm 5 m/S 760 mmHg 76%
11:00 +2°C° 0 mm 5 m/S 760 mmHg 74%
12:00 +3°C° 0 mm 5 m/S 761 mmHg 71%
13:00 +4°C° 0 mm 4 m/S 762 mmHg 69%
14:00 +5°C° 0 mm 4 m/S 762 mmHg 66%
15:00 +5°C° 0 mm 4 m/S 763 mmHg 68%
16:00 +4°C° 0 mm 3 m/S 763 mmHg 69%
17:00 +4°C° 0 mm 3 m/S 764 mmHg 71%
18:00 +3°C° 0 mm 2 m/S 764 mmHg 77%
19:00 +1°C° 0 mm 2 m/S 765 mmHg 83%
20:00 +1°C° 0 mm 1 m/S 765 mmHg 89%
21:00 0°C° 0 mm 1 m/S 765 mmHg 89%
22:00 0°C° 0 mm 1 m/S 766 mmHg 89%
23:00 0°C° 0 mm 1 m/S 766 mmHg 88%

Morgen, 12 April, Montag

Zeit Temperatur Niederschläge Wind Luftdruck Luftfeuchtigkeit
00:00 -2°C° 0 mm 2 m/S 766 mmHg 87%
01:00 -2°C° 0 mm 2 m/S 766 mmHg 86%
02:00 -1°C° 0 mm 2 m/S 766 mmHg 85%
03:00 -1°C° 0 mm 2 m/S 766 mmHg 84%
04:00 -1°C° 0 mm 2 m/S 765 mmHg 84%
05:00 -1°C° 0 mm 3 m/S 765 mmHg 83%
06:00 +1°C° 0 mm 3 m/S 764 mmHg 85%
07:00 +3°C° 0 mm 4 m/S 764 mmHg 87%
08:00 +4°C° 0 mm 4 m/S 763 mmHg 90%
09:00 +6°C° 0 mm 4 m/S 763 mmHg 86%
10:00 +8°C° 0 mm 5 m/S 763 mmHg 82%
11:00 +9°C° 0 mm 5 m/S 763 mmHg 78%
12:00 +10°C° 0 mm 5 m/S 762 mmHg 74%
13:00 +10°C° 0 mm 5 m/S 762 mmHg 71%
14:00 +12°C° 0 mm 5 m/S 762 mmHg 67%
15:00 +10°C° 0 mm 5 m/S 762 mmHg 67%
16:00 +11°C° 0 mm 4 m/S 762 mmHg 67%
17:00 +11°C° 0 mm 4 m/S 761 mmHg 67%
18:00 +8°C° 0 mm 4 m/S 761 mmHg 71%
19:00 +8°C° 0 mm 3 m/S 761 mmHg 76%
20:00 +7°C° 0 mm 3 m/S 761 mmHg 80%
21:00 +7°C° 0 mm 3 m/S 761 mmHg 81%
22:00 +7°C° 0 mm 3 m/S 760 mmHg 82%
23:00 +6°C° 0 mm 4 m/S 760 mmHg 83%

übermorgen, 13 April, Dienstag

Zeit Temperatur Niederschläge Wind Luftdruck Luftfeuchtigkeit
00:00 +6°C° 0 mm 4 m/S 760 mmHg 85%
01:00 +5°C° 0 mm 4 m/S 759 mmHg 87%
02:00 +5°C° 0 mm 4 m/S 759 mmHg 89%
03:00 +5°C° 0 mm 3 m/S 759 mmHg 90%
04:00 +4°C° 0 mm 3 m/S 758 mmHg 92%
05:00 +4°C° 0 mm 3 m/S 758 mmHg 93%
06:00 +4°C° 0 mm 3 m/S 758 mmHg 90%
07:00 +5°C° 0 mm 3 m/S 758 mmHg 87%
08:00 +7°C° 0 mm 3 m/S 758 mmHg 84%
09:00 +7°C° 0 mm 3 m/S 758 mmHg 81%
10:00 +8°C° 0 mm 3 m/S 758 mmHg 77%
11:00 +8°C° 0 mm 3 m/S 758 mmHg 74%
12:00 +8°C° 0 mm 3 m/S 758 mmHg 77%
13:00 +7°C° 0 mm 3 m/S 758 mmHg 80%
14:00 +7°C° 0 mm 2 m/S 758 mmHg 83%
15:00 +6°C° 0 mm 2 m/S 758 mmHg 86%
16:00 +6°C° 0 mm 2 m/S 758 mmHg 88%
17:00 +6°C° 0 mm 2 m/S 758 mmHg 90%
18:00 +6°C° 0.2 mm 2 m/S 758 mmHg 91%
19:00 +5°C° 0.2 mm 2 m/S 758 mmHg 92%
20:00 +4°C° 0.2 mm 3 m/S 759 mmHg 93%
21:00 +3°C° 0.1 mm 3 m/S 759 mmHg 89%
22:00 +3°C° 0.1 mm 3 m/S 759 mmHg 85%
23:00 +2°C° 0.1 mm 3 m/S 759 mmHg 80%

14 April, Mittwoch

Zeit Temperatur Niederschläge Wind Luftdruck Luftfeuchtigkeit
00:00 +2°C° 0 mm 3 m/S 759 mmHg 80%
01:00 +1°C° 0 mm 3 m/S 759 mmHg 79%
02:00 +1°C° 0 mm 3 m/S 759 mmHg 78%
03:00 0°C° 0 mm 3 m/S 759 mmHg 81%
04:00 +1°C° 0 mm 2 m/S 759 mmHg 84%
05:00 -1°C° 0 mm 2 m/S 759 mmHg 88%
06:00 0°C° 0 mm 3 m/S 759 mmHg 83%
07:00 +1°C° 0 mm 3 m/S 759 mmHg 78%
08:00 +2°C° 0 mm 3 m/S 759 mmHg 73%
09:00 +3°C° 0 mm 3 m/S 760 mmHg 69%
10:00 +3°C° 0 mm 4 m/S 760 mmHg 64%
11:00 +4°C° 0 mm 4 m/S 760 mmHg 60%
12:00 +4°C° 0 mm 4 m/S 760 mmHg 58%
13:00 +4°C° 0 mm 3 m/S 760 mmHg 56%
14:00 +4°C° 0 mm 3 m/S 761 mmHg 55%
15:00 +4°C° 0 mm 3 m/S 761 mmHg 56%
16:00 +4°C° 0 mm 3 m/S 761 mmHg 57%
17:00 +5°C° 0 mm 2 m/S 761 mmHg 59%
18:00 +4°C° 0 mm 2 m/S 761 mmHg 65%
19:00 +3°C° 0 mm 2 m/S 762 mmHg 71%
20:00 +1°C° 0 mm 2 m/S 762 mmHg 77%
21:00 +1°C° 0 mm 2 m/S 762 mmHg 79%
22:00 -1°C° 0 mm 2 m/S 762 mmHg 81%
23:00 -1°C° 0 mm 2 m/S 763 mmHg 83%

15 April, Donnerstag

Zeit Temperatur Niederschläge Wind Luftdruck Luftfeuchtigkeit
00:00 0°C° 0 mm 1 m/S 763 mmHg 83%
01:00 0°C° 0 mm 1 m/S 763 mmHg 83%
02:00 0°C° 0 mm 1 m/S 763 mmHg 83%
03:00 0°C° 0 mm 1 m/S 763 mmHg 82%
04:00 0°C° 0 mm 1 m/S 763 mmHg 82%
05:00 0°C° 0 mm 1 m/S 763 mmHg 81%
06:00 +1°C° 0 mm 1 m/S 763 mmHg 73%
07:00 +3°C° 0 mm 1 m/S 763 mmHg 66%
08:00 +3°C° 0 mm 2 m/S 763 mmHg 59%
09:00 +4°C° 0 mm 2 m/S 763 mmHg 56%
10:00 +5°C° 0 mm 2 m/S 764 mmHg 53%
11:00 +5°C° 0 mm 3 m/S 764 mmHg 50%
12:00 +7°C° 0 mm 3 m/S 764 mmHg 47%
13:00 +8°C° 0 mm 3 m/S 764 mmHg 44%
14:00 +7°C° 0 mm 4 m/S 764 mmHg 42%
15:00 +7°C° 0 mm 4 m/S 764 mmHg 44%
16:00 +7°C° 0 mm 4 m/S 765 mmHg 46%
17:00 +7°C° 0 mm 4 m/S 765 mmHg 48%
18:00 +5°C° 0 mm 3 m/S 766 mmHg 55%
19:00 +3°C° 0 mm 3 m/S 766 mmHg 62%
20:00 +2°C° 0 mm 2 m/S 767 mmHg 69%
21:00 +2°C° 0 mm 2 m/S 767 mmHg 71%
22:00 +1°C° 0 mm 2 m/S 768 mmHg 73%
23:00 +1°C° 0 mm 2 m/S 769 mmHg 75%

16 April, Freitag

Zeit Temperatur Niederschläge Wind Luftdruck Luftfeuchtigkeit
00:00 -1°C° 0 mm 2 m/S 769 mmHg 75%
01:00 -2°C° 0 mm 2 m/S 769 mmHg 76%
02:00 -2°C° 0 mm 2 m/S 770 mmHg 76%
03:00 -2°C° 0 mm 2 m/S 770 mmHg 76%
04:00 -2°C° 0 mm 2 m/S 771 mmHg 76%
05:00 -2°C° 0 mm 2 m/S 771 mmHg 76%
06:00 -1°C° 0 mm 2 m/S 771 mmHg 69%
07:00 +1°C° 0 mm 2 m/S 772 mmHg 61%
08:00 +3°C° 0 mm 2 m/S 772 mmHg 53%
09:00 +4°C° 0 mm 2 m/S 772 mmHg 48%
10:00 +5°C° 0 mm 2 m/S 772 mmHg 43%
11:00 +5°C° 0 mm 2 m/S 772 mmHg 38%
12:00 +6°C° 0 mm 2 m/S 772 mmHg 37%
13:00 +6°C° 0 mm 2 m/S 772 mmHg 36%
14:00 +7°C° 0 mm 2 m/S 772 mmHg 34%
15:00 +7°C° 0 mm 2 m/S 772 mmHg 36%
16:00 +7°C° 0 mm 2 m/S 771 mmHg 38%
17:00 +7°C° 0 mm 2 m/S 771 mmHg 39%
18:00 +5°C° 0 mm 2 m/S 771 mmHg 47%
19:00 +4°C° 0 mm 2 m/S 771 mmHg 55%
20:00 +2°C° 0 mm 2 m/S 771 mmHg 62%
21:00 +2°C° 0 mm 2 m/S 771 mmHg 65%
22:00 +1°C° 0 mm 2 m/S 771 mmHg 68%
23:00 +1°C° 0 mm 2 m/S 771 mmHg 71%
Mehr zeigen

Wir brauchen deine Erlaubnis

Meteoprog und unser Service Anbieter werden persönliche Daten aufbewahren, so wie Cookies, Geräte Bezeichnung oder ähnliche Technologien von deinem Gerät und Prozess, so wie Persönliche Daten Inhalte und Werbungen, genauso wie social Media und den Verkehr zu analysieren.

  • Aufbewahrung und/oder Zugang zu deiner Geräte Informationen.

    Cookies, Geräte Bezeichnung oder andere Informationen, können aufbewahrt oder Zugang zu deinem Gerät erhalten, für den Grund, der oben angegeben wird.

  • Personalisierte Werbung und Inhalte, Messungen, Einblick in das Publikum und Produkt Entwicklung.

    Werbungen und Inhalte können personalisiert werden, basierend auf ein Profil. Mehr Daten können besser personalisierte Werbungen und Inhalte hinzufügen. Werbung und Inhalte können gezeigt und gemessen werden. Einblicke über das Publikum, welche die Werbung gesehen haben und den Inhalt, können abgeleitet werden. So wie Daten können genutzt werden, um es zu verbessern oder die Benutzer Erfahrung zu verbessern das System und die Software.

Wenn du “Ich stimme zu” klickst, erlaubst du uns, die Cookies zu benutzen die Geräte Bezeichnung, den Web oder ähnliche Technologien zu benutzen. Deine Settings, können in deinem Gerät bei deinem Browser geändert werden.

Für den bestimmten Zweck, berechtigten Interessen beruhen darauf, mehr als auf den Inhalt. Du kannst mehr darüber in unseren Privaten und Cookie Politik lesen.